User: anonymous   Login
Location: Stara Lesna
(49.1528°N, 20.2911°E)
Time: 15:23:56
(UTC+01:00)
Language:

Cosmos 1536 - Orbit

View from above orbital plane
View from above orbital plane
View from above satellite
View from above satellite

Ground track
Ground track

The orbit data is extracted from the following two-line orbital elements,

1 14699U 84013A   19324.07421579 -.00000102  00000-0 -90960-5 0  9993
2 14699  82.5269 191.5354 0011186 272.2394  87.7553 15.05517737946361
Epoch (UTC): 20 November 2019 01:46:52
Eccentricity: 0.0011186
inclination: 82.5269°
perigee height: 542 km
apogee height: 557 km
right ascension of ascending node: 191.5354°
argument of perigee: 272.2394°
revolutions per day: 15.05517737
mean anomaly at epoch: 87.7553°
orbit number at epoch: 94636

The dashed part of the orbit path shows where the satellite is in the earth's shadow,  

DLR